This demonstration page uses our WeatherBlox Daily Observations layout. Learn more.

Left ArrowRight Arrow

44.8408, -93.29828

Hourly Observations for July 1, 2017

Temp ( °F °C ) Dew Point ( °F °C ) Humidity (%) Winds ( mph kmh ) Pressure ( in mb ) Visibility ( mi km ) Precip ( " mm )
12:53 am 00:53 Mostly Cloudy with Light Rain 66 18.9 59 15 78 78 NW 15 24 29.85 1011 10 16 0.01 0.25
1:53 am 01:53 Cloudy 65 18.3 60 15.6 84 84 NW 10 17 29.86 1011 10 16 0.01 0.25
2:53 am 02:53 Cloudy 64 17.8 59 15 84 84 NW 9 15 29.86 1011 10 16 0.00 0.00
3:53 am 03:53 Cloudy 63 17.2 58 14.4 84 84 WNW 5 7 29.86 1011 10 16 0.00 0.00
4:53 am 04:53 Partly Cloudy 62 16.7 57 13.9 84 84 W 5 7 29.88 1012 10 16 0.00 0.00
5:53 am 05:53 Partly Cloudy 62 16.7 57 13.9 84 84 WNW 5 7 29.89 1012 10 16 0.00 0.00
6:20 am 06:20 Mostly Cloudy 61 16.1 56 13.3 84 84 WNW 5 7 29.91 1013 10 16 0.00 0.00
6:53 am 06:53 Mostly Cloudy 62 16.7 57 13.9 84 84 WNW 7 11 29.91 1013 10 16 0.00 0.00
7:15 am 07:15 Mostly Cloudy 63 17.2 57 13.9 81 81 NW 10 17 29.91 1013 10 16 0.00 0.00
7:53 am 07:53 Mostly Cloudy 64 17.8 57 13.9 78 78 NW 8 13 29.92 1013 10 16 0.00 0.00
8:53 am 08:53 Sunny 67 19.4 56 13.3 68 68 NW 10 17 29.93 1014 10 16 0.00 0.00
9:53 am 09:53 Partly Cloudy 70 21.1 55 12.8 59 59 NW 12 19 29.94 1014 10 16 0.00 0.00
10:53 am 10:53 Mostly Cloudy 70 21.1 53 11.7 55 55 NW 13 20 29.94 1014 10 16 0.00 0.00
11:53 am 11:53 Mostly Cloudy 72 22.2 53 11.7 52 52 NW 14 22 29.96 1014 10 16 0.00 0.00
12:53 pm 12:53 Cloudy 71 21.7 51 10.6 49 49 W 12 19 29.96 1015 10 16 0.00 0.00
1:53 pm 13:53 Cloudy 71 21.7 52 11.1 51 51 W 14 22 29.96 1015 10 16 0.00 0.00
2:53 pm 14:53 Partly Cloudy 74 23.3 52 11.1 46 46 W 8 13 29.95 1014 10 16 0.00 0.00
3:53 pm 15:53 Partly Cloudy 76 24.4 51 10.6 42 42 W 16 26 29.94 1014 10 16 0.00 0.00
4:53 pm 16:53 Mostly Cloudy 76 24.4 52 11.1 43 43 WSW 10 17 29.93 1014 10 16 0.00 0.00
5:53 pm 17:53 Cloudy 74 23.3 51 10.6 45 45 WSW 8 13 29.92 1013 10 16 0.00 0.00
6:53 pm 18:53 Mostly Cloudy 75 23.9 51 10.6 43 43 SW 7 11 29.92 1013 10 16 0.00 0.00
7:53 pm 19:53 Mostly Cloudy 75 23.9 53 11.7 46 46 SSW 7 11 29.91 1013 10 16 0.00 0.00
8:53 pm 20:53 Mostly Cloudy 74 23.3 54 12.2 50 50 S 8 13 29.89 1012 10 16 0.00 0.00
9:53 pm 21:53 Mostly Cloudy 73 22.8 53 11.7 50 50 SSW 10 17 29.90 1012 10 16 0.00 0.00
10:53 pm 22:53 Mostly Cloudy 72 22.2 53 11.7 52 52 SSW 12 19 29.90 1013 10 16 0.00 0.00
11:53 pm 23:53 Mostly Cloudy 72 22.2 53 11.7 52 52 SW 10 17 29.90 1013 10 16 0.00 0.00

Powered by AerisWeather